This demonstration page uses our WeatherBlox Daily Observations layout. Learn more.

Left ArrowRight Arrow

38.80484, -77.04692

Hourly Observations for January 16, 2022

Temp ( °F °C ) Dew Point ( °F °C ) Humidity (%) Winds ( mph kmh ) Pressure ( in mb ) Visibility ( mi km ) Precip ( " mm )
12:52 am 00:52 Mostly Cloudy 20 -6.7 1 -17.2 43 43 NE 12 19 30.38 1029 10 16 0.00 0.00
1:52 am 01:52 Mostly Cloudy 19 -7.2 1 -17.2 45 45 NNE 9 15 30.41 1030 10 16 0.00 0.00
2:52 am 02:52 Mostly Clear 18 -7.8 1 -17.2 47 47 NNE 10 17 30.40 1029 10 16 0.00 0.00
3:52 am 03:52 Mostly Clear 18 -7.8 0 -17.8 45 45 NE 10 17 30.38 1029 10 16 0.00 0.00
4:52 am 04:52 Mostly Cloudy 18 -7.8 1 -17.2 47 47 NE 8 13 30.37 1029 10 16 0.00 0.00
5:52 am 05:52 Mostly Cloudy 17 -8.3 1 -17.2 49 49 NE 10 17 30.37 1029 10 16 0.00 0.00
6:52 am 06:52 Mostly Cloudy 17 -8.3 3 -16.1 54 54 NNE 9 15 30.36 1028 10 16 0.00 0.00
7:52 am 07:52 Cloudy 18 -7.8 4 -15.6 54 54 NE 7 11 30.38 1029 10 16 0.00 0.00
8:52 am 08:52 Cloudy 19 -7.2 5 -15 54 54 NE 9 15 30.35 1028 10 16 0.00 0.00
9:52 am 09:52 Cloudy 20 -6.7 5 -15 52 52 NNE 8 13 30.33 1027 10 16 0.00 0.00
10:52 am 10:52 Cloudy 22 -5.6 6 -14.4 50 50 NE 8 13 30.31 1026 10 16 0.00 0.00
11:52 am 11:52 Cloudy 24 -4.4 8 -13.3 50 50 NNE 12 19 30.24 1024 10 16 0.00 0.00
12:52 pm 12:52 Cloudy 25 -3.9 8 -13.3 48 48 NE 12 19 30.17 1022 10 16 0.00 0.00
1:31 pm 13:31 Cloudy with Light Snow 25 -3.9 10 -12.2 53 53 NNE 12 19 30.14 1021 5 8 0.00 0.00
1:52 pm 13:52 Cloudy with Light Snow 24 -4.4 13 -10.6 62 62 NE 12 19 30.11 1020 2 3 0.00 0.00
2:01 pm 14:01 Cloudy with Light Snow 24 -4.4 14 -10 65 65 NE 15 24 30.10 1019 2 2 0.00 0.00
2:17 pm 14:17 Cloudy with Light Snow 24 -4.4 16 -8.9 71 71 NE 14 22 30.09 1019 1 1 0.01 0.25
2:49 pm 14:49 Mostly Cloudy with Snow 25 -4 18 -8 74 74 NNE 9 15 30.07 1018 1 1 0.02 0.51
2:52 pm 14:52 Mostly Cloudy with Snow 24 -4.4 19 -7.2 81 81 NE 10 17 30.06 1018 1 1 0.03 0.76
2:59 pm 14:59 Mostly Cloudy with Snow 24 -4.4 19 -7.2 81 81 NNE 13 20 30.06 1018 1 1 0.00 0.00
3:37 pm 15:37 Mostly Cloudy with Snow 24 -4.4 20 -6.7 84 84 NNE 16 26 30.02 1017 1 1 0.04 1.02
3:45 pm 15:45 Mostly Cloudy with Light Snow 24 -4.4 20 -6.7 84 84 NNE 14 22 30.01 1016 1 1 0.04 1.02
3:52 pm 15:52 Mostly Cloudy with Snow 24 -4.4 20 -6.7 84 84 NNE 14 22 29.99 1016 1 1 0.05 1.27
4:14 pm 16:14 Mostly Cloudy with Snow 25 -3.9 21 -6.1 85 85 NNE 14 22 29.97 1015 1 1 0.01 0.25
4:25 pm 16:25 Mostly Cloudy with Snow 25 -3.9 21 -6.1 85 85 NNE 13 20 29.96 1015 0 0 0.03 0.76
4:39 pm 16:39 Cloudy with Snow 26 -3.3 22 -5.6 84 84 NNE 14 22 29.95 1014 1 1 0.05 1.27
4:43 pm 16:43 Mostly Cloudy with Snow 26 -3.3 22 -5.6 84 84 NNE 13 20 29.94 1014 1 1 0.05 1.27
4:52 pm 16:52 Cloudy with Light Snow 26 -3.3 22 -5.6 84 84 NE 15 24 29.93 1014 1 1 0.09 2.29
5:07 pm 17:07 Cloudy with Snow 27 -2.8 23 -5 85 85 NE 14 22 29.92 1013 1 1 0.02 0.51
5:18 pm 17:18 Cloudy with Light Snow 27 -2.8 23 -5 85 85 NNE 15 24 29.89 1012 1 2 0.03 0.76
5:31 pm 17:31 Cloudy with Light Snow 27 -2.8 23 -5 85 85 NE 17 28 29.87 1012 3 4 0.06 1.52
5:34 pm 17:34 Cloudy with Light Snow 28 -2.2 24 -4.4 85 85 NE 16 26 29.86 1011 3 5 0.06 1.52
5:42 pm 17:42 Cloudy with Mist and Fog 28 -2.2 24 -4.4 85 85 NE 20 31 29.85 1011 5 8 0.07 1.78
5:52 pm 17:52 Cloudy 29 -1.7 24 -4.4 82 82 NE 17 28 29.84 1010 5 8 0.07 1.78
5:54 pm 17:54 Cloudy 29 -1.7 24 -4.4 82 82 NE 17 28 29.84 1011 5 8 0.00 0.00
6:35 pm 18:35 Cloudy with Light Freezing Rain 31 -0.6 26 -3.3 82 82 NE 22 35 29.77 1008 8 13 0.02 0.51
6:52 pm 18:52 Cloudy with Light Freezing Rain 31 -0.6 27 -2.8 85 85 NE 21 33 29.75 1007 4 6 0.02 0.51
7:30 pm 19:30 Cloudy with Light Rain 33 0.6 30 -1.1 89 89 NE 22 35 29.69 1006 4 6 0.03 0.76
7:34 pm 19:34 Cloudy with Light Rain 34 1.1 30 -1.1 85 85 NE 22 35 29.67 1005 4 6 0.03 0.76
7:45 pm 19:45 Cloudy with Light Rain 34 1.1 30 -1.1 85 85 NE 23 37 29.65 1004 5 8 0.05 1.27
7:52 pm 19:52 Cloudy with Light Rain 34 1.1 30 -1.1 85 85 NE 20 31 29.64 1004 5 8 0.06 1.52
8:52 pm 20:52 Cloudy with Rain 35 1.7 31 -0.6 85 85 NE 20 31 29.51 999 6 10 0.09 2.29
9:04 pm 21:04 Cloudy with Rain 35 1.7 32 0 89 89 NE 23 37 29.49 999 5 8 0.03 0.76
9:12 pm 21:12 Cloudy with Rain 36 2.2 32 0 86 86 NE 21 33 29.47 998 5 8 0.05 1.27
9:52 pm 21:52 Cloudy with Rain 37 2.8 33 0.6 86 86 NE 21 33 29.40 996 5 8 0.16 4.06
10:28 pm 22:28 Cloudy with Rain 39 3.9 36 2.2 89 89 Calm 29.41 996 3 5 0.15 3.81
10:35 pm 22:35 Cloudy with Heavy Rain 39 3.9 37 2.8 93 93 SSW 3 6 29.43 997 3 4 0.19 4.83
10:50 pm 22:50 Cloudy with Light Rain 37 3 34 1 87 87 NNE 20 31 29.34 994 3 5 0.29 7.37
10:52 pm 22:52 Cloudy with Rain 37 2.8 34 1.1 89 89 NNE 22 35 29.32 993 3 5 0.29 7.37
11:19 pm 23:19 Cloudy 39 3.9 37 2.8 93 93 NNE 14 22 29.19 989 10 16 0.04 1.02
11:23 pm 23:23 Cloudy 40 4.4 37 2.8 89 89 NE 17 28 29.20 989 10 16 0.04 1.02
11:44 pm 23:44 Mostly Cloudy 40 4.4 36 2.2 86 86 NE 10 17 29.18 988 10 16 0.04 1.02
11:52 pm 23:52 Mostly Cloudy 39 3.9 36 2.2 89 89 NE 9 15 29.17 988 10 16 0.04 1.02

Powered by AerisWeather